Weather Roundup
Issued by NWS Chicago, IL

Home | Current Version | Previous Version | Text Only | Print | Product List | Glossary Off
Versions: 1 2 3 4 5 6 7 8 9 10 11 12 13 14 15 16 17 18 19 20 21 22 23 24 25 26 27 28 29 30 31 32 33 34 35 36 37 38 39 40 41 42 43 44 45 46 47 48 49 50

406
NZUS59 KLOT 251408
HRRLOT

CHICAGO AREA WEATHER ROUNDUP
NATIONAL WEATHER SERVICE CHICAGO/ROMEOVILLE IL
900 AM CDT WED MAY 25 2016

NOTE: "FAIR" INDICATES FEW OR NO CLOUDS BELOW 12,000 FEET WITH NO
SIGNIFICANT WEATHER AND/OR OBSTRUCTIONS TO VISIBILITY.

* THESE STATIONS ARE NOT UNDER NWS QUALITY CONTROL. THEY ALSO MAY NOT
  REPORT WEATHER SUCH AS PRECIPITATION OR FOG.

ILZ005-006-012>014-019>023-251500-
NORTHEAST ILLINOIS

CITY           SKY/WX    TMP DP  RH WIND       PRES   REMARKS
OHARE          PTSUNNY   76  64  66 S8        30.01S
MIDWAY         PTSUNNY   77  63  61 SW9       30.02S
AURORA         MOSUNNY   75  65  70 S8        30.02S
LANSING*       SUNNY     74  62  66 S9        30.04S
JOLIET*        CLOUDY    73  65  75 S9        30.03S
WAUKEGAN       CLOUDY    76  65  68 SW5       30.00F
DUPAGE AIRPORT CLOUDY    74  64  71 S9        30.01F
WHEELING       SUNNY     76  64  66 S8        30.02S
KANKAKEE*      CLOUDY   N/A N/A N/A SW7       30.05F
MORRIS*        SUNNY     73  63  71 S8        30.01F
LEWIS AIRPORT* PTSUNNY   71  61  70 S9        30.03S
$$

WIZ051-052-058>065-066-070>072-251500-
SOUTHEAST WISCONSIN

CITY           SKY/WX    TMP DP  RH WIND       PRES   REMARKS
MILWAUKEE      CLOUDY    75  64  68 CALM      30.01R
KENOSHA*       CLOUDY    76  64  66 S3        30.01S
RACINE*        CLOUDY    75  63  66 CALM      30.02S
BURLINGTON     CLOUDY    73  62  69 CALM      30.00S
WAUKESHA       SUNNY     72  63  73 S6        30.01F
WEST BEND      CLOUDY    70  61  73 E9        30.02S
$$

INZ001>003-010>013-019-020-251500-
NORTHWEST INDIANA

CITY           SKY/WX    TMP DP  RH WIND       PRES   REMARKS
GARY*          MOSUNNY   73  66  78 S6        30.04R
MICHIGAN CITY* NOT AVBL
RENSSELAER*    NOT AVBL
VALPARAISO     SUNNY     75  62  64 S10       30.05S
$$

LMZ740>746-251500-
SOUTHERN LAKE MICHIGAN

STATION/POSITION TIME  SKY/WX   TEMP WIND        PRES    VSBY
                                AIR  DIR/SP/G
                 (UTC)          (F)  (DEG/KT/KT) (MB)    (MI)
HARRISON CRIB    1300            71  190/ 12/ 12   N/A
BURNHAM HARBOR   1400            77  190/  7/  9   N/A
CALUMET HARBOR   1300            72  200/  6/  8 1016.1R
BURNS HARBOR     1300            72  180/  8/ 11 1017.6R
MICHIGAN CITY    1300            71  160/  8/ 10   N/A
$$

ABBREVIATIONS USED IN REMARKS
   TC - TEMPERATURE IN CELSIUS
  WCI - WIND CHILL INDEX
   HX - HEAT INDEX
  VSB - VISIBILITY
$$




USA.gov is the U.S. government's official web portal to all federal, state and local government web resources and services.